PICO-02B022

decayed
NORAD ID: 60571 Int'l Des: 2024-149 Owner: APOGEO Country: I
LEOCIRCULARRETROGRADE

Über PICO-02B022

Beschreibung wird geladen...

Höhenverlauf

Altitude vs Time

uPlot chart will show altitude changes over time

Zweizeiliger Elementsatz

1 60571U 24149DH 25342.68455166 .11029599 26022-5 36080-2 0 9998
2 60571 97.6616 74.9833 0011857 312.9665 47.0631 16.25849960 72712
Epoch: 8. Dez. 2025 • Age: 2268 hours

Aktueller Status

Position data unavailable
Startdatum 16. Aug. 2024
Alter 1.5 years
Verglühungsdatum 9. Dez. 2025
Typ other

Technische Details

Klassifizierung Payload
Masse 0.50 kg
Trockenmasse 0.50 kg
Gesamtmasse 0.50 kg
Länge 0.03 m
Durchmesser 0.10 m
Spannweite 0.10 m
Form Box
Hersteller APOGEO
Bus-Typ Cubesat 0.3U
Phasenstatus Reentered
Besitzer/Staat APOGEO/I

Große Konstellationen

Loading constellations...